Saint Paul Island, AK

5:44 PM AKST on January 17, 2018 (GMT -0900)
Saint Paul Island

Weather History for PASN - October, 2012

Change the Weather History Date:

Monday, October 29, 2012

  Actual Average Record
Temperature  
Mean Temperature 32 °F 36 °F  
Max Temperature 38 °F 40 °F 46 °F (2003)
Min Temperature 26 °F 32 °F 15 °F (1983)
Degree Days  
Heating Degree Days 33 29  
Month to date heating degree days 751 759  
Since 1 July heating degree days 2598 2402  
Cooling Degree Days 0 0  
Month to date cooling degree days 0 0  
Year to date cooling degree days 0 0  
Moisture  
Dew Point 32 °F    
Average Humidity 0    
Maximum Humidity 0    
Minimum Humidity 0    
Precipitation  
Precipitation T in 0.10 in 0.88 in (1995)
Month to date precipitation 3.84 2.91  
Year to date precipitation 22.23 18.33  
Snow  
Snow T in 0.10 in 2.00 in (1971)
Month to date snowfall 0.8 1.7  
Since 1 July snowfall 0.8 1.7  
Since 1 September snowfall 0.8 1.7  
Snow Depth 0.00 in    
Sea Level Pressure  
Sea Level Pressure 30.32 in    
Wind  
Wind Speed 15 mph (NNE)    
Max Wind Speed 29 mph    
Max Gust Speed 36 mph    
Visibility 9 miles    
Events Rain , Snow    
T = Trace of Precipitation, MM = Missing Value Source: NWS Daily Summary

Daily Weather History Graph

Daily Weather History Graph

Search for Another Location

Airport or City:

Trip Planner

Search our weather history database for the weather conditions in past years. The results will help you decide how hot, cold, wet, or windy it might be!

Date:

Astronomy

Oct. 29, 2012 Rise Set
Actual Time 10:26 AM AKDT 7:41 PM AKDT
Civil Twilight 9:46 AM AKDT 8:21 PM AKDT
Nautical Twilight 9:00 AM AKDT 9:07 PM AKDT
Astronomical Twilight 8:16 AM AKDT 9:51 PM AKDT
Moon 7:29 PM AKDT (10/29) 10:39 AM AKDT (10/29)
Length of Visible Light 10h 35m
Length of Day
9h 14m
Full, 100% of the Moon is Illuminated
Oct 29
Full
Nov 6
Last Quarter
Nov 13
New
Nov 20
First Quarter
Nov 28
Full

Hourly Weather History & Observations

Time (AKDT) Temp. Windchill Dew Point Humidity Pressure Visibility Wind Dir Wind Speed Gust Speed Precip Events Conditions
12:53 AM 30.9 °F 25.2 °F 30.0 °F 96% 30.22 in 10.0 mi NNE 5.8 mph - N/A   Clear
1:32 AM 26.6 °F 20.0 °F 26.6 °F 100% 30.22 in 1.8 mi North 5.8 mph - N/A   Partly Cloudy
1:53 AM 28.0 °F 20.8 °F 28.0 °F 100% 30.23 in 3.0 mi North 6.9 mph - N/A   Partly Cloudy
2:12 AM 28.4 °F 20.4 °F 28.4 °F 100% 30.23 in 5.0 mi North 8.1 mph - N/A   Scattered Clouds
2:36 AM 30.2 °F 23.4 °F 30.2 °F 100% 30.23 in 10.0 mi North 6.9 mph - N/A   Mostly Cloudy
2:53 AM 30.9 °F 23.5 °F 30.0 °F 96% 30.24 in 10.0 mi North 8.1 mph - N/A   Scattered Clouds
3:01 AM 30.2 °F 23.4 °F 30.2 °F 100% 30.23 in 10.0 mi North 6.9 mph - N/A   Mostly Cloudy
3:08 AM 30.2 °F 23.4 °F 30.2 °F 100% 30.24 in 10.0 mi North 6.9 mph - N/A   Scattered Clouds
3:26 AM 30.2 °F 23.4 °F 30.2 °F 100% 30.24 in 10.0 mi North 6.9 mph - N/A   Mostly Cloudy
3:53 AM 33.1 °F 25.5 °F 32.0 °F 96% 30.25 in 10.0 mi NNE 9.2 mph - N/A   Mostly Cloudy
4:53 AM 36.0 °F 28.5 °F 34.0 °F 93% 30.25 in 10.0 mi NNE 10.4 mph - N/A   Mostly Cloudy
5:53 AM 36.0 °F 29.6 °F 34.0 °F 93% 30.26 in 10.0 mi NNE 8.1 mph - N/A   Mostly Cloudy
6:18 AM 35.6 °F 27.5 °F 33.8 °F 93% 30.25 in 10.0 mi NNE 11.5 mph - N/A   Overcast
6:53 AM 37.0 °F 28.5 °F 34.0 °F 89% 30.27 in 10.0 mi North 13.8 mph - N/A   Overcast
7:53 AM 37.0 °F 30.4 °F 34.0 °F 89% 30.27 in 10.0 mi NNE 9.2 mph - N/A   Overcast
8:53 AM 35.1 °F 26.4 °F 33.1 °F 92% 30.29 in 10.0 mi NNE 12.7 mph - N/A   Overcast
9:53 AM 35.1 °F 26.9 °F 34.0 °F 96% 30.29 in 9.0 mi NNE 11.5 mph - 0.00 in Rain Light Rain
10:16 AM 35.6 °F 25.9 °F 33.8 °F 93% 30.29 in 9.0 mi NNE 16.1 mph 21.9 mph N/A   Overcast
10:33 AM 35.6 °F 26.6 °F 33.8 °F 93% 30.30 in 10.0 mi NNE 13.8 mph - N/A   Overcast
10:53 AM 35.1 °F 25.5 °F 34.0 °F 96% 30.31 in 10.0 mi NNE 15.0 mph - N/A   Overcast
11:37 AM 35.6 °F 27.1 °F 33.8 °F 93% 30.32 in 10.0 mi NNE 12.7 mph - N/A   Overcast
11:53 AM 36.0 °F 26.3 °F 33.1 °F 89% 30.33 in 10.0 mi NNE 16.1 mph - N/A   Overcast
12:14 PM 37.4 °F 28.5 °F 33.8 °F 87% 30.33 in 10.0 mi NNE 15.0 mph 24.2 mph N/A   Overcast
12:53 PM 37.0 °F 28.5 °F 34.0 °F 89% 30.34 in 10.0 mi NE 13.8 mph 23.0 mph N/A   Overcast
1:53 PM 37.0 °F 27.4 °F 35.1 °F 93% 30.35 in 10.0 mi NE 17.3 mph 23.0 mph N/A   Overcast
2:53 PM 37.0 °F 27.7 °F 35.1 °F 93% 30.36 in 9.0 mi NNE 16.1 mph 24.2 mph 0.00 in Rain Light Rain
3:42 PM 37.4 °F 27.8 °F 33.8 °F 87% 30.36 in 10.0 mi NE 17.3 mph 26.5 mph 0.00 in   Overcast
3:53 PM 37.9 °F 28.2 °F 34.0 °F 86% 30.36 in 10.0 mi NE 18.4 mph 26.5 mph 0.00 in   Overcast
4:49 PM 37.4 °F 26.9 °F 33.8 °F 87% 30.37 in 10.0 mi NE 20.7 mph 26.5 mph 0.00 in   Overcast
4:53 PM 37.9 °F 27.9 °F 33.1 °F 83% 30.37 in 10.0 mi NE 19.6 mph 26.5 mph 0.00 in   Overcast
5:53 PM 37.0 °F 25.9 °F 32.0 °F 82% 30.38 in 10.0 mi NE 23.0 mph 28.8 mph N/A   Overcast
6:53 PM 37.0 °F 26.2 °F 33.1 °F 86% 30.39 in 10.0 mi NE 21.9 mph 28.8 mph 0.00 in Rain Light Rain
7:06 PM 37.4 °F 26.6 °F 32.0 °F 81% 30.39 in 10.0 mi NE 21.9 mph 27.6 mph N/A   Overcast
7:53 PM 36.0 °F 25.0 °F 33.1 °F 89% 30.40 in 10.0 mi NE 20.7 mph 32.2 mph 0.00 in Rain Light Rain
8:40 PM 35.6 °F 23.4 °F 32.0 °F 87% 30.41 in 10.0 mi NE 25.3 mph 32.2 mph 0.00 in   Overcast
8:53 PM 36.0 °F 25.3 °F 32.0 °F 86% 30.42 in 10.0 mi NE 19.6 mph 28.8 mph 0.00 in   Overcast
9:00 PM 35.6 °F 24.8 °F 32.0 °F 87% 30.41 in 7.0 mi NE 19.6 mph 28.8 mph 0.00 in Rain Light Rain
9:07 PM 35.6 °F 24.2 °F 32.0 °F 87% 30.42 in 8.0 mi ENE 21.9 mph 31.1 mph 0.00 in Snow Light Snow
9:53 PM 35.1 °F 24.1 °F 30.9 °F 85% 30.44 in 10.0 mi NE 19.6 mph 27.6 mph 0.00 in   Overcast
10:01 PM 35.6 °F 25.5 °F 32.0 °F 87% 30.44 in 10.0 mi NE 17.3 mph 31.1 mph N/A   Overcast
11:53 PM 34.0 °F 23.0 °F 28.0 °F 79% 30.47 in 10.0 mi NE 18.4 mph 29.9 mph N/A   Overcast